[[{"header":{"parameterUnit":"m.s-1","parameterCategory":1,"la1":30.2991,"la2":30.254,"lo1":-89.0895,"lo2":-89.0444,"dy":0.0017,"dx":0.0017,"nx":28,"ny":28,"refTime":"2025-06-14T09:00:00:Z","depth":0,"parameterNumber":2,"parameterNumberName":"U-component_of_WINDS"},"data":[0,0,0,0,0,0,0,0,0,0,0,0,0,0,0,0,0,0,0,0,0,0,0,0,0,0,0,0,0,0,0,0,0,0,0,0,0,0,0,0,0,0,0,0,0,0,0,0,0,0,0,0,0,0,0,0,0,0,2.069,2.0691,0,2.0772,2.0773,2.0774,2.076,2.0759,2.0757,2.0756,2.0838,2.0842,2.0845,0,0,0,0,0,0,0,0,0,0,0,0,0,2.0519,2.0522,2.069,2.0691,2.0692,2.0772,2.0773,2.0774,2.076,2.0759,2.0757,2.0755,2.0837,2.0841,2.0846,0,0,0,0,0,0,0,0,0,0,0,0,0,2.0596,2.0523,2.069,2.0695,2.0696,2.0772,2.0773,2.0775,2.0761,2.0759,2.0756,2.0754,2.0836,2.0841,2.0846,2.0922,0,0,2.0862,2.0865,0,0,0,0,0,0,0,0,2.0592,2.0603,2.0693,2.0695,2.0696,2.0754,2.0743,2.0824,2.0761,2.0736,2.0756,2.0753,2.0812,2.0819,2.0839,2.0925,2.0929,2.0863,2.0866,2.0868,2.087,0,0,0,0,0,0,0,2.0587,2.0599,2.0723,2.0694,2.0696,2.0692,2.0701,2.0758,2.0785,2.0738,2.0737,2.0747,2.0812,2.0834,2.0841,2.093,2.0863,2.0867,2.0871,2.0873,2.1079,2.1082,0,0,0,0,0,0,2.058,2.0595,2.072,2.0725,2.0638,2.0697,2.0707,2.0737,2.0784,2.0789,2.0749,2.0746,2.0826,2.0835,2.0844,2.0932,2.0868,2.0873,2.0876,2.1077,2.108,2.1082,0,0,0,0,0,0,2.0576,2.0591,2.0717,2.066,2.0675,2.0702,2.0737,2.074,2.0762,2.0793,2.0797,2.0766,2.0825,2.0836,2.0902,2.0935,2.0876,2.088,2.1074,2.1078,2.1081,2.1112,0,0,0,0,0,0,2.0572,2.059,2.062,2.066,2.0678,2.0774,2.0739,2.0743,2.0771,2.0768,2.081,2.0815,2.0824,2.0894,2.0907,2.0941,2.0884,2.1071,2.1076,2.108,2.1108,2.1116,2.1123,0,0,0,0,0,2.0566,2.0625,2.0621,2.0637,2.0716,2.0776,2.0786,2.0796,2.0774,2.0803,2.0823,2.0813,2.093,2.0901,2.0915,2.0952,2.1069,2.1075,2.108,2.1105,2.1114,2.1123,0,0,0,0,0,0,2.0588,2.0631,2.0627,2.0702,2.0735,2.0774,2.0811,2.0806,2.0846,2.0842,2.0852,2.0861,2.0927,2.0947,2.0913,2.1026,2.0996,2.1005,2.101,2.102,2.1027,2.102,2.0889,0,0,0,0,0,2.0602,2.0648,2.0683,2.0745,2.0762,2.0784,2.081,2.0815,2.085,2.0864,2.0888,2.0922,2.0966,2.0994,2.1037,2.1112,2.1119,2.1144,2.1151,2.1157,2.1163,2.1202,2.1212,2.11,2.11,2.11,0,0,2.063,2.0659,2.0688,2.075,2.0777,2.0823,2.0796,2.0846,2.088,2.0871,2.0934,2.0953,2.0991,2.1061,2.1093,2.1079,2.1196,2.1164,2.1168,2.1171,2.1208,2.1219,2.1228,2.1103,2.1103,2.1102,0,0,2.0705,2.0733,2.0787,2.0814,2.0854,2.0868,2.0881,2.092,2.0932,2.0995,2.0989,2.1029,2.1106,2.1132,2.1156,2.1239,2.1231,2.1253,2.1291,2.1328,2.1337,2.1345,2.1372,2.1382,2.126,2.126,2.126,0,2.0735,2.0805,2.0815,2.0866,2.0892,2.0887,2.0941,2.0966,2.1018,2.1036,2.102,2.1114,2.114,2.1214,2.1235,2.1255,2.1268,2.1247,2.1335,2.1343,2.135,2.1376,2.1387,2.1262,2.1262,2.1262,2.1261,0,2.0838,2.0886,2.0925,2.0975,2.1006,2.1058,2.1075,2.1106,2.1108,2.1122,2.1186,2.1216,2.1263,2.1282,2.1285,2.1356,2.1346,2.1333,2.1303,2.1363,2.1387,2.1398,2.1265,2.1264,2.1264,2.1263,0,0,2.0928,2.0983,2.0996,2.1018,2.1062,2.1099,2.115,2.1196,2.1221,2.1257,2.1298,2.1363,2.135,2.1377,2.1382,2.1415,2.1476,2.1397,2.1398,2.1408,2.1554,2.1561,2.1573,2.1472,2.1474,2.1476,2.1549,0,2.1005,2.1095,2.1105,2.1185,2.1228,2.1224,2.1268,2.1299,2.1314,2.1352,2.1369,2.1413,2.1395,2.141,2.1443,2.1462,2.1505,2.1457,2.1508,2.151,2.1496,2.1586,2.1594,2.1662,2.1559,2.1561,2.1562,0,2.1106,2.1144,2.1228,2.1264,2.1282,2.1322,2.1364,2.1401,2.1436,2.1445,2.1474,2.1475,2.1526,2.1496,2.1565,2.1532,2.1554,2.1566,2.1569,2.1572,2.1538,2.1588,2.1685,2.1694,2.1578,2.1576,2.1575,0,2.1159,2.1232,2.1291,2.131,2.1354,2.1381,2.1401,2.1434,2.146,2.1497,2.1514,2.1557,2.1579,2.1612,2.1623,2.1601,2.1691,2.1663,2.1698,2.1697,2.1714,2.1713,2.1813,2.1734,2.1734,2.1733,2.1733,0,2.1241,2.1292,2.1315,2.1351,2.1407,2.1418,2.1473,2.1491,2.152,2.1558,2.1558,2.1594,2.1609,2.1647,2.1657,2.1711,2.1722,2.1729,2.173,2.1727,2.1726,2.174,2.1734,2.1736,2.1735,2.1735,2.1734,0,2.1309,2.1327,2.139,2.1427,2.1437,2.1477,2.1507,2.1541,2.1556,2.1605,2.1617,2.164,2.1684,2.17,2.1755,2.1761,2.1823,2.1822,2.1811,2.181,2.1843,2.1839,2.1953,2.1968,2.1882,2.1883,2.1883,0,2.1359,2.1398,2.1439,2.1464,2.1485,2.1527,2.1553,2.1566,2.1594,2.1635,2.1664,2.1708,2.1744,2.1815,2.1836,2.1877,2.1875,2.1912,2.1881,2.1876,2.1872,2.1868,2.1871,2.1917,2.1918,2.1919,2.1919,0,2.1445,2.1451,2.149,2.1532,2.1564,2.1597,2.163,2.1651,2.1668,2.1699,2.1744,2.1772,2.1827,2.187,2.1912,2.1931,2.1927,2.1929,2.1939,2.1935,2.1925,2.1928,2.1823,2.1926,2.1925,2.1925,2.1924,2.1924,2.1503,2.1536,2.157,2.1612,2.1638,2.1668,2.1701,2.172,2.1758,2.1804,2.1809,2.1857,2.1889,2.1945,2.1966,2.2003,2.1992,2.2007,2.201,2.2013,2.2014,2.1922,2.2011,2.2011,2.2011,2.2011,2.201,0,2.1586,2.1607,2.1647,2.1692,2.1725,2.172,2.1755,2.1783,2.1825,2.1856,2.1891,2.1942,2.1983,2.2008,2.2049,2.2074,2.2073,2.2084,2.2081,2.2084,2.2023,2.2009,2.2084,2.2084,2.2084,2.2083,2.2083,2.2083,2.1633,2.1688,2.1699,2.1766,2.1786,2.1833,2.1854,2.188,2.1905,2.1962,2.1996,2.2012,2.2039,2.2083,2.212,2.2126,2.214,2.2151,2.2156,2.2097,2.2089,2.2082,2.2069,2.2155,2.2155,2.2214,2.2215,2.2215]},{"header":{"parameterUnit":"m.s-1","parameterCategory":1,"la1":30.2991,"la2":30.254,"lo1":-89.0895,"lo2":-89.0444,"dy":0.0017,"dx":0.0017,"nx":28,"ny":28,"refTime":"2025-06-14T09:00:00:Z","depth":0,"parameterNumber":3,"parameterNumberName":"V-component_of_WINDS"},"data":[0,0,0,0,0,0,0,0,0,0,0,0,0,0,0,0,0,0,0,0,0,0,0,0,0,0,0,0,0,0,0,0,0,0,0,0,0,0,0,0,0,0,0,0,0,0,0,0,0,0,0,0,0,0,0,0,0,0,1.288,1.2881,0,1.2933,1.2934,1.2934,1.2902,1.29,1.2899,1.2897,1.2952,1.2955,1.2958,0,0,0,0,0,0,0,0,0,0,0,0,0,1.275,1.2752,1.288,1.2881,1.2881,1.2933,1.2934,1.2934,1.2902,1.29,1.2898,1.2897,1.2951,1.2955,1.2958,0,0,0,0,0,0,0,0,0,0,0,0,0,1.2805,1.2753,1.288,1.2871,1.2871,1.2933,1.2934,1.2935,1.2903,1.29,1.2898,1.2896,1.295,1.2955,1.2959,1.3032,0,0,1.2972,1.2974,0,0,0,0,0,0,0,0,1.2802,1.281,1.2872,1.2872,1.2872,1.2908,1.2908,1.2967,1.2903,1.2891,1.2897,1.2895,1.294,1.2945,1.296,1.3035,1.3037,1.2973,1.2975,1.2977,1.2978,0,0,0,0,0,0,0,1.2798,1.2807,1.2901,1.2873,1.2873,1.2865,1.287,1.2919,1.2928,1.2892,1.2889,1.2896,1.2939,1.2956,1.2961,1.3038,1.2972,1.2976,1.2979,1.2981,1.3174,1.3176,0,0,0,0,0,0,1.2795,1.2804,1.2899,1.2903,1.283,1.2869,1.2875,1.2899,1.2927,1.2929,1.2898,1.2894,1.2949,1.2956,1.2963,1.3049,1.2977,1.2981,1.2984,1.3171,1.3174,1.3177,0,0,0,0,0,0,1.2792,1.2804,1.2897,1.2853,1.2864,1.2874,1.2901,1.2901,1.2918,1.2932,1.2933,1.2913,1.2948,1.2957,1.3015,1.3051,1.2983,1.2987,1.3168,1.3172,1.3175,1.3224,0,0,0,0,0,0,1.2789,1.2803,1.2831,1.2854,1.2867,1.2949,1.2903,1.2904,1.2925,1.2921,1.2947,1.2949,1.2947,1.3008,1.3019,1.3056,1.2991,1.3165,1.317,1.3174,1.3219,1.3229,1.3237,0,0,0,0,0,1.2784,1.2843,1.2833,1.2845,1.2902,1.2951,1.2958,1.2955,1.2928,1.2957,1.2965,1.2948,1.3045,1.3015,1.3026,1.3065,1.3163,1.3168,1.3174,1.3215,1.3227,1.3237,0,0,0,0,0,0,1.2826,1.2846,1.2835,1.2903,1.2925,1.2945,1.2981,1.2968,1.2998,1.2993,1.2987,1.2993,1.3054,1.3065,1.3031,1.3136,1.31,1.3108,1.3127,1.3138,1.3147,1.3144,1.2994,0,0,0,0,0,1.2843,1.2881,1.2896,1.2955,1.2967,1.2972,1.2993,1.2988,1.3011,1.3021,1.3034,1.3056,1.3092,1.3116,1.3149,1.322,1.3225,1.3252,1.3261,1.3269,1.3276,1.3313,1.3325,1.3195,1.3195,1.3195,0,0,1.2879,1.2895,1.2919,1.2964,1.2981,1.302,1.298,1.3024,1.3052,1.3027,1.3083,1.3093,1.3118,1.3182,1.3211,1.3193,1.3313,1.3276,1.3282,1.3285,1.332,1.3332,1.3343,1.3199,1.3198,1.3198,0,0,1.2964,1.298,1.303,1.3047,1.3073,1.3075,1.3087,1.3109,1.3114,1.3169,1.3151,1.3185,1.3246,1.3264,1.3282,1.3371,1.3356,1.3382,1.343,1.3466,1.3476,1.3485,1.3517,1.3528,1.3389,1.339,1.339,0,1.3006,1.3064,1.3058,1.3102,1.3122,1.31,1.315,1.3167,1.3202,1.3216,1.3195,1.3271,1.3286,1.3354,1.3376,1.3391,1.3403,1.338,1.3475,1.3484,1.3493,1.3522,1.3534,1.3393,1.3392,1.3392,1.3392,0,1.3114,1.3154,1.3191,1.3225,1.3249,1.3296,1.3296,1.3321,1.3313,1.3318,1.3374,1.3391,1.3427,1.3442,1.3436,1.3509,1.3497,1.3476,1.3439,1.3508,1.3536,1.3547,1.3397,1.3396,1.3395,1.3394,0,0,1.3229,1.3257,1.3271,1.3285,1.331,1.3341,1.3386,1.342,1.3441,1.3466,1.3503,1.3555,1.3535,1.3554,1.3549,1.3581,1.365,1.3556,1.3556,1.3572,1.373,1.3746,1.3759,1.3639,1.3641,1.3643,1.3728,0,1.3316,1.3395,1.3389,1.3464,1.35,1.3478,1.3518,1.3537,1.3542,1.3573,1.3578,1.3615,1.3586,1.3598,1.3628,1.3635,1.3681,1.3629,1.3674,1.3675,1.3669,1.3774,1.3792,1.3871,1.3739,1.3741,1.3742,0,1.3428,1.3455,1.3533,1.3551,1.3566,1.3601,1.3631,1.3662,1.3682,1.3684,1.3704,1.3694,1.3738,1.37,1.3761,1.3725,1.3743,1.3749,1.3752,1.3756,1.3713,1.3782,1.3896,1.3908,1.3759,1.3758,1.3756,0,1.3504,1.356,1.3613,1.3626,1.3648,1.3673,1.3684,1.3702,1.3723,1.3749,1.3762,1.3793,1.381,1.3834,1.3832,1.3804,1.3894,1.3855,1.3896,1.3896,1.3917,1.3915,1.4036,1.3927,1.3927,1.3927,1.3927,0,1.3601,1.365,1.3647,1.368,1.3733,1.3726,1.3778,1.3786,1.3802,1.3835,1.3818,1.385,1.3844,1.3876,1.3874,1.3925,1.3933,1.3934,1.3934,1.3936,1.3936,1.3949,1.3943,1.393,1.393,1.3929,1.3928,0,1.3696,1.3696,1.3752,1.3768,1.3773,1.3811,1.3825,1.3855,1.3858,1.39,1.391,1.3914,1.395,1.3949,1.3991,1.3989,1.4051,1.4044,1.4044,1.4043,1.4083,1.4079,1.4216,1.4234,1.4114,1.4115,1.4116,0,1.3758,1.3795,1.3814,1.3835,1.3846,1.3881,1.3901,1.3894,1.3916,1.3941,1.3969,1.4003,1.403,1.4088,1.4095,1.4126,1.4119,1.4165,1.4124,1.4125,1.412,1.4118,1.4121,1.4173,1.4175,1.4176,1.4176,0,1.3869,1.3867,1.3897,1.3926,1.3951,1.3974,1.3995,1.4013,1.4009,1.4034,1.407,1.4091,1.4132,1.4166,1.4195,1.4205,1.419,1.4189,1.42,1.4204,1.4202,1.4203,1.4066,1.4186,1.4185,1.4185,1.4184,1.4184,1.395,1.398,1.3998,1.4032,1.4046,1.4066,1.4095,1.41,1.413,1.4163,1.4157,1.4198,1.4215,1.4253,1.4266,1.4297,1.4281,1.4297,1.4301,1.4305,1.4309,1.4197,1.4302,1.4302,1.4301,1.4301,1.4301,0,1.406,1.4069,1.41,1.4129,1.4155,1.4137,1.4159,1.4182,1.4218,1.4236,1.4262,1.4303,1.4335,1.4343,1.4374,1.4397,1.4391,1.4405,1.4404,1.4406,1.4322,1.431,1.441,1.441,1.441,1.441,1.441,1.441,1.412,1.4171,1.417,1.4228,1.4237,1.4276,1.429,1.4307,1.4321,1.4367,1.4394,1.4399,1.4412,1.4443,1.4472,1.4473,1.4485,1.4503,1.4502,1.4423,1.4412,1.4402,1.439,1.4505,1.4506,1.4583,1.4584,1.4584]}]]